RH
85 75 75 71 71 69 78 81 83 81 78 75 74 74 73 78 79 77 72 71 75 74 73 77 74 71 70 69 66 65 64 62 62
81 84 74 72 69 66 70 80 83 85 87 83 76 77 78 82 84 77 71 72 74 76 73 74 74 70 70 71 68 65 64 62 61
74 71 72 72 68 66 65 73 80 83 90 94 90 81 82 87 90 91 87 80 74 72 73 77 80 76 74 70 65 63 63 64 65
64 63 72 69 68 67 70 76 76 82 87 89 91 91 90 86 86 88 86 86 87 85 81 78 80 79 77 75 74 71 66 65 64
44 53 69 70 70 68 68 72 75 80 80 73 76 76 85 89 86 84 86 88 87 85 90 89 88 89 86 83 85 81 72 66 61
37 40 54 69 70 69 71 75 76 75 71 64 66 65 66 73 81 87 86 86 87 92 96 94 91 91 89 86 82 82 76 69 61
43 41 46 54 65 65 67 67 72 68 66 65 61 57 61 60 70 74 76 86 89 93 95 92 93 90 88 87 86 81 77 72 66
38 39 41 47 52 64 64 64 73 74 70 65 56 52 47 47 56 66 72 79 87 93 95 99 96 91 90 88 90 84 79 70 59
39 38 38 37 40 45 49 51 60 64 68 62 53 49 47 46 41 48 57 64 73 74 79 84 88 86 76 74 87 74 71 68 64
36 34 35 36 35 37 40 46 38 40 44 44 45 45 47 45 43 35 36 45 53 57 58 60 60 61 74 75 75 62 53 58 61
36 34 33 32 32 33 33 37 42 44 37 35 39 43 43 49 41 35 30 29 32 41 47 54 55 58 59 60 61 61 58 55 56
37 35 33 33 34 33 31 31 33 34 34 33 35 39 36 41 49 45 36 35 35 36 46 44 48 50 59 57 60 67 73 75 65
36 36 34 34 34 33 32 32 33 33 34 35 35 39 33 37 44 47 46 43 40 39 42 52 53 54 53 53 52 66 62 66 67
38 36 33 33 33 31 31 31 31 31 33 33 31 31 36 39 44 47 48 49 46 33 29 32 34 38 39 42 43 45 47 47 53
39 37 35 34 33 33 33 31 28 30 30 30 31 33 33 33 34 37 42 43 38 35 32 31 32 33 35 34 35 37 38 39 42
42 39 36 35 35 36 37 35 33 33 32 32 37 39 39 36 35 35 35 35 36 37 36 35 33 31 31 30 28 27 28 29 32
42 42 41 40 40 39 38 37 37 35 34 34 38 45 44 42 40 40 40 39 39 40 39 37 36 34 33 32 30 29 29 27 25
46 45 44 44 44 43 42 41 41 41 41 41 41 45 47 47 51 46 46 45 43 42 42 39 37 36 35 34 32 31 30 30 29
51 51 50 49 46 46 45 45 45 47 49 51 51 51 52 54 57 56 54 54 52 51 49 47 47 46 44 42 40 38 36 35 32
51 51 50 49 49 48 49 50 52 54 54 55 56 57 57 57 57 57 57 58 56 54 54 52 52 52 51 51 48 46 44 42 41